Regional Weather Roundup
Issued by NWS

Home | Current Version | Previous Version | Graphics & Text | Print | Product List | Glossary On
Versions: 1 2 3 4 5 6 7 8 9 10 11 12 13 14 15 16 17 18 19 20 21 22 23 24 25 26 27 28 29 30 31 32 33 34 35 36 37 38 39 40 41 42 43 44 45 46 47 48 49 50
000
ASUS43 KFSD 080110
RWRSD

WEATHER ROUNDUP FOR SOUTH DAKOTA
NATIONAL WEATHER SERVICE SIOUX FALLS SD
700 PM CST SUN FEB 07 2016

NOTE: "FAIR" INDICATES FEW OR NO CLOUDS BELOW 12,000 FEET WITH NO
SIGNIFICANT WEATHER AND/OR OBSTRUCTIONS TO VISIBILITY.


SDZ001>005-009-010-012>017-080200-
NORTHWEST AND NORTH CENTRAL SOUTH DAKOTA

CITY           SKY/WX    TMP DP  RH WIND       PRES   REMARKS
BUFFALO          N/A     31  12  45 NW28G37   30.19R WCI  17
FAITH            N/A     33  13  43 NW32G47   30.17R WCI  19
MOBRIDGE       CLOUDY    35  17  47 NW25G39   30.06R WCI  23
$$

SDZ012>016-024>037-041>051-057-063-072>074-080200-
SOUTHWEST AND SOUTH CENTRAL SOUTH DAKOTA

CITY           SKY/WX    TMP DP  RH WIND       PRES   REMARKS
RAPID CTY ARPT CLEAR     33   9  36 NW28G37   30.23R WCI  20
PIERRE         CLEAR     35  14  42 NW30G45   30.11R WCI  22
CUSTER         CLEAR     24   2  38 NW21G35   30.21R WCI   9
ELLSWORTH AFB  CLEAR     33   9  37 NW32G39   30.22R WCI  18
PHILIP         CLOUDY    35  19  52 NW28G37   30.19R WCI  22
PINE RIDGE     CLEAR     34   4  28 NW20G35   30.24R WCI  23
SPEARFISH      HVY SNOW  30   9  40 NW24G41   30.29R WCI  16
WINNER         MOCLDY    35  18  49 NW23G33   30.13R WCI  23
$$

SDZ004>011-016>023-039-040-080200-
NORTHEAST SOUTH DAKOTA

CITY           SKY/WX    TMP DP  RH WIND       PRES   REMARKS
ABERDEEN       CLOUDY    30  17  58 NW33G44   30.00R WCI  14
WATERTOWN      LGT SNOW  22  16  78 NW28G39   29.91R WCI   4
BROOKINGS      FLURRIES  23  17  78 N30G41    29.89R WCI   5
SISSETON         N/A     22  15  75 N36G45    29.92R WCI   3
$$

SDZ017-020-022-023-036>040-048>070-080200-
SOUTHEAST SOUTH DAKOTA

CITY           SKY/WX    TMP DP  RH WIND       PRES   REMARKS
SIOUX FALLS    LGT SNOW  26  19  74 N28G36    29.95R WCI  10
HURON          MIX PCPN  30  20  66 N35G53    29.99R WCI  14
CHAMBERLAIN    CLOUDY    34  19  54 NW30G44   30.08R WCI  20
MITCHELL       FLURRIES  31  26  82 N26G38    30.04R WCI  17
YANKTON        CLOUDY    32  27  80 NW28G33   30.00S WCI  18
$$

ABBREVIATIONS USED IN REMARKS
   TC - TEMPERATURE IN CELSIUS
  WCI - WIND CHILL INDEX
   HX - HEAT INDEX
  VSB - VISIBILITY




USA.gov is the U.S. government's official web portal to all federal, state and local government web resources and services.